FW6692 Weather Reports


Display with metric or nautical units.
time (UTC)temp
F
wind
direction
speed
MPH
gust
MPH
rain 1hr
in
rain 24hr
in
rain mn
in
humidity
%
barometer
mb
20260509194555 86 0 1.0 11.0 0.00 0.00 0.00 61 1013.8
20260509193051 85 0 2.0 12.0 0.00 0.00 0.00 62 1013.9
20260509191548 85 140 1.0 4.0 0.00 0.00 0.00 63 1014.2
20260509190101 84 0 1.0 11.0 0.00 0.00 0.00 62 1014.5
20260509184544 85 0 0.0 9.0 0.00 0.00 0.00 64 1014.7
20260509183049 84 155 2.0 11.0 0.00 0.00 0.00 65 1015.0
20260509181553 84 131 1.0 10.0 0.00 0.00 0.00 66 1015.1
20260509180053 82 117 6.0 12.0 0.00 0.00 0.00 67 1015.2
20260509174547 82 113 3.0 12.0 0.00 0.00 0.00 70 1015.4
20260509173047 82 63 1.0 11.0 0.00 0.00 0.00 68 1015.6
20260509171547 82 127 5.0 11.0 0.00 0.00 0.00 70 1015.6
20260509170042 81 140 2.0 7.0 0.00 0.00 0.00 69 1015.7
20260509164555 84 129 1.0 6.0 0.00 0.00 0.00 68 1015.5
20260509163051 82 342 4.0 9.0 0.00 0.00 0.00 72 1015.4
20260509161558 82 324 3.0 8.0 0.00 0.00 0.00 72 1015.3
20260509160051 83 0 3.0 7.0 0.00 0.00 0.00 70 1015.5
20260509154555 81 254 3.0 7.0 0.00 0.00 0.00 76 1015.4
20260509153056 80 338 3.0 6.0 0.00 0.00 0.00 76 1015.5
20260509151552 81 332 2.0 5.0 0.00 0.00 0.00 77 1015.2
20260509150054 81 278 3.0 8.0 0.00 0.00 0.00 79 1015.2
20260509144553 79 248 6.0 8.0 0.00 0.00 0.00 80 1014.8
20260509143055 78 248 5.0 8.0 0.00 0.00 0.00 81 1014.7
20260509141549 77 276 4.0 8.0 0.00 0.00 0.00 83 1014.7
20260509140059 76 297 5.0 10.0 0.00 0.00 0.00 85 1014.7
20260509134607 74 279 6.0 12.0 0.00 0.00 0.00 87 1014.7
20260509133050 73 257 4.0 10.0 0.00 0.00 0.00 93 1014.4
20260509131551 71 286 2.0 6.0 0.00 0.00 0.00 98 1014.5
20260509130048 68 140 1.0 4.0 0.00 0.00 0.00 98 1013.8
20260509124549 67 123 3.0 7.0 0.00 0.00 0.00 98 1013.5
20260509123052 65 143 1.0 5.0 0.00 0.00 0.00 98 1013.5
20260509121549 65 150 8.0 15.0 0.00 0.00 0.00 98 1013.2
20260509120052 65 0 0.0 4.0 0.00 0.00 0.00 98 1014.1
20260509114548 65 165 1.0 6.0 0.00 0.00 0.00 97 1013.9
20260509113053 65 140 8.0 11.0 0.00 0.00 0.00 97 1014.0
20260509111551 65 142 4.0 7.0 0.00 0.00 0.00 97 1014.6
20260509110046 65 138 4.0 7.0 0.00 0.00 0.00 97 1015.0
20260509104548 66 52 4.0 11.0 0.00 0.00 0.00 97 1015.7
20260509103053 67 327 3.0 11.0 0.00 0.00 0.00 98 1016.4
20260509101552 67 329 4.0 10.0 0.00 0.00 0.00 98 1016.8
20260509100051 66 329 8.0 14.0 0.00 0.00 0.00 99 1016.6
20260509094554 65 282 3.0 4.0 0.00 0.01 0.00 97 1015.7
20260509093057 65 344 3.0 5.0 0.00 0.01 0.00 98 1015.8
20260509091554 65 336 1.0 4.0 0.00 0.01 0.00 97 1015.7
20260509090051 66 0 0.0 8.0 0.00 0.01 0.00 98 1015.3
20260509084552 67 5 3.0 9.0 0.00 0.01 0.00 98 1015.6
20260509083055 65 0 0.0 2.0 0.00 0.01 0.00 97 1014.9
20260509081552 66 0 0.0 3.0 0.00 0.01 0.00 97 1014.9
20260509080052 66 97 2.0 5.0 0.00 0.01 0.00 98 1015.0
20260509074558 66 0 0.0 2.0 0.00 0.01 0.00 97 1015.1
20260509073053 66 0 0.0 3.0 0.00 0.01 0.00 97 1014.9
20260509071546 66 0 0.0 0.0 0.00 0.01 0.00 97 1015.1
20260509070054 66 0 0.0 0.0 0.00 0.01 0.00 97 1015.4
20260509064559 67 0 0.0 0.0 0.00 0.01 0.00 97 1015.0
20260509063058 67 0 0.0 0.0 0.00 0.01 0.00 97 1015.7
20260509061559 66 0 0.0 2.0 0.00 0.01 0.00 97 1015.5
20260509060048 67 155 0.0 3.0 0.00 0.01 0.00 97 1015.4
20260509054554 65 0 0.0 2.0 0.00 0.01 0.00 97 1015.7
20260509053049 65 0 0.0 0.0 0.00 0.01 0.00 96 1014.7
20260509051551 66 0 0.0 2.0 0.00 0.01 0.00 96 1014.7
20260509050050 65 147 1.0 3.0 0.00 0.01 0.00 96 1014.4
20260509044544 67 0 0.0 3.0 0.00 0.01 0.01 97 1014.2
20260509043057 66 0 0.0 0.0 0.00 0.01 0.01 96 1014.0
20260509041548 66 0 0.0 2.0 0.00 0.01 0.01 95 1014.3
20260509040050 66 147 2.0 3.0 0.00 0.01 0.01 96 1014.4
20260509034552 66 0 0.0 0.0 0.00 0.01 0.01 95 1014.3
20260509033054 67 0 0.0 0.0 0.00 0.01 0.01 95 1014.1
20260509031552 67 0 0.0 0.0 0.00 0.01 0.01 95 1014.0
20260509030053 67 0 0.0 4.0 0.00 0.01 0.01 95 1013.8
20260509024546 67 147 2.0 4.0 0.00 0.01 0.01 95 1013.5
20260509023045 68 128 2.0 4.0 0.00 0.01 0.01 94 1013.5
20260509021555 68 128 4.0 7.0 0.00 0.01 0.01 93 1013.4
20260509020046 68 111 4.0 7.0 0.00 0.01 0.01 93 1013.1
20260509014548 69 107 4.0 7.0 0.00 0.01 0.01 92 1013.1
20260509013055 70 115 5.0 7.0 0.00 0.01 0.01 91 1013.1
20260509011545 71 111 3.0 8.0 0.00 0.01 0.01 90 1013.0
20260509010046 71 103 4.0 9.0 0.00 0.01 0.01 89 1013.1
20260509004601 71 96 7.0 13.0 0.00 0.01 0.01 88 1012.7
20260509003051 72 115 8.0 15.0 0.00 0.01 0.01 88 1012.7
20260509001551 72 108 9.0 13.0 0.00 0.01 0.01 87 1013.0
20260509000045 72 130 11.0 16.0 0.00 0.01 0.01 86 1013.0
20260508234550 73 113 11.0 15.0 0.00 0.01 0.01 86 1013.0
20260508233051 73 113 11.0 16.0 0.00 0.01 0.01 86 1013.0
20260508231552 72 115 9.0 13.0 0.00 0.01 0.01 86 1013.0
20260508230053 72 123 7.0 12.0 0.00 0.01 0.01 87 1012.9
20260508224553 72 118 9.0 12.0 0.00 0.01 0.01 86 1013.0
20260508223050 73 98 8.0 13.0 0.00 0.01 0.01 85 1012.9
20260508221551 73 125 9.0 14.0 0.00 0.01 0.01 85 1013.1
20260508220052 73 108 10.0 15.0 0.00 0.01 0.01 84 1013.1
20260508214603 73 127 9.0 14.0 0.00 0.01 0.01 85 1013.3
20260508213050 72 121 9.0 14.0 0.00 0.01 0.01 84 1013.5
20260508211549 72 123 6.0 14.0 0.00 0.01 0.01 84 1013.5
20260508210054 71 124 7.0 15.0 0.00 0.01 0.01 85 1013.8
20260508204550 73 114 7.0 12.0 0.00 0.01 0.01 84 1013.8
20260508203053 71 64 4.0 12.0 0.00 0.01 0.01 86 1014.1
20260508201546 70 78 7.0 10.0 0.00 0.01 0.01 86 1014.6